Theta_e
313 314 313 313 314 314 314 314 314 314 314 314 314 314 315 315 315 315 316 316 315 315 315 315 314 314 314 313 313 314 312 307 303 300 299 302 308 313 320 320 322 321 320 308 303 298 296 297 299 299 297 298 297 298 299 301 295 294 289 282 283 281 285 287 287 288 292 291 292 293 292 293 292 296 320 322 320 322 324 324 327 330 329 332 333 335 335 335
313 313 313 313 313 314 314 314 314 313 314 314 315 314 315 315 315 315 315 315 315 315 315 315 315 314 313 313 314 314 309 304 300 301 301 310 320 318 321 322 325 324 317 304 299 294 297 297 297 296 296 297 296 298 299 297 297 289 285 284 284 283 287 291 290 290 292 291 291 292 292 293 294 293 300 313 313 315 319 322 326 325 329 332 333 334 333 334
312 313 313 313 313 313 313 313 313 314 314 314 314 314 314 314 315 315 315 315 315 315 314 315 314 313 313 313 313 312 306 300 300 300 305 322 319 321 323 322 328 323 307 304 299 295 297 296 296 296 294 294 293 296 295 295 296 290 288 285 282 287 288 289 290 292 292 293 293 293 292 291 294 294 298 310 311 315 317 319 322 323 324 328 331 333 332 333
312 312 312 313 312 313 313 313 313 314 313 314 314 314 314 314 315 315 315 315 315 314 314 314 314 313 313 313 314 307 302 299 298 303 309 322 324 322 324 323 328 324 306 302 298 295 296 295 294 294 293 293 291 294 294 293 293 290 290 285 288 287 290 291 292 293 293 293 293 292 291 292 294 294 308 312 311 308 310 321 322 322 326 328 331 332 332 331
312 312 312 312 312 313 313 313 313 313 313 313 313 314 314 314 315 315 315 315 315 315 315 314 313 313 313 313 312 307 300 293 302 306 310 328 327 323 324 324 325 318 311 297 297 295 295 294 295 293 292 290 291 292 291 292 292 290 289 287 289 287 290 291 291 291 293 293 292 290 292 294 293 296 310 308 301 300 309 320 325 328 330 330 330 331 332 330
311 311 312 312 312 313 313 312 313 313 313 313 313 314 314 314 314 315 314 315 314 315 314 314 313 313 313 313 307 304 298 287 302 305 329 330 329 326 327 325 326 315 301 298 296 295 296 294 293 292 290 291 290 290 291 292 295 290 288 288 288 290 292 291 293 291 291 292 292 291 294 294 292 294 295 298 301 298 303 321 328 330 332 333 333 332 330 330
311 311 311 312 312 312 312 312 313 313 313 313 313 314 314 314 314 314 314 314 314 314 314 314 313 313 313 311 302 302 294 295 304 307 326 334 331 326 327 329 326 306 298 296 296 296 292 293 292 291 289 289 290 290 291 294 293 291 289 287 292 290 292 291 293 293 291 291 292 292 292 293 292 293 300 313 318 320 322 328 330 331 334 334 331 331 330 330
311 311 311 311 312 312 312 312 313 313 312 313 313 314 314 314 314 314 314 314 313 314 313 313 313 313 311 301 300 295 296 296 304 307 338 333 328 326 326 310 305 301 299 295 294 293 293 292 292 294 289 289 291 292 292 292 290 290 289 289 291 291 290 291 291 289 289 290 292 292 292 294 292 292 310 315 323 324 326 329 329 331 333 332 331 331 331 331
311 311 311 312 311 311 312 312 312 312 312 313 313 313 313 314 313 313 313 313 313 313 313 313 313 313 312 301 297 290 289 302 308 317 322 321 321 319 313 309 303 303 299 295 295 293 295 292 294 294 291 292 292 293 291 291 287 289 292 291 289 291 291 291 290 289 289 290 291 292 290 292 296 307 313 315 325 327 328 327 329 331 330 330 330 330 331 330
311 311 311 311 311 311 311 311 311 311 312 312 313 313 313 313 313 313 313 313 313 313 313 313 312 311 304 300 296 287 295 304 317 318 320 319 315 312 305 305 303 299 299 295 294 294 294 292 296 296 293 292 292 292 289 290 288 289 289 290 290 292 291 291 291 289 290 290 289 291 289 290 292 304 295 314 327 328 327 327 329 329 329 329 329 330 330 329
311 311 311 311 311 311 311 311 311 311 312 312 312 312 312 312 312 312 312 312 312 313 313 313 313 309 301 300 291 288 300 307 313 312 314 314 311 307 303 303 302 301 297 294 295 295 295 296 297 298 299 295 292 291 290 290 290 290 291 292 291 290 289 290 289 290 290 291 289 292 290 290 294 305 298 318 327 328 326 326 327 328 328 328 328 328 328 328
311 311 311 311 311 311 311 311 311 312 312 312 312 312 312 312 312 312 312 313 313 313 311 312 313 305 302 299 294 293 304 308 312 310 310 310 307 306 302 304 302 301 298 294 295 296 299 300 300 298 292 298 292 293 291 291 293 293 293 291 287 287 290 288 289 289 289 291 289 291 292 289 291 293 298 323 328 328 326 325 326 327 327 328 328 326 326 326
311 311 311 311 311 311 311 311 311 311 311 311 311 312 312 312 312 312 312 312 312 312 312 311 312 305 299 289 296 305 307 309 310 309 308 302 302 301 300 301 302 300 300 297 295 297 299 300 300 298 298 296 294 290 293 294 293 294 290 288 288 285 285 288 289 289 289 293 289 292 283 283 285 287 298 327 327 326 325 324 325 326 326 327 326 325 325 325
310 311 311 310 311 311 311 311 311 311 311 311 311 311 311 311 311 311 311 311 313 312 313 314 308 303 298 291 299 305 307 308 308 308 306 308 301 300 300 299 300 298 299 299 297 297 298 300 301 300 298 296 293 295 294 290 290 290 289 286 284 283 283 287 288 291 291 291 290 293 285 283 283 288 313 327 327 324 321 323 324 325 325 325 325 324 324 324
310 310 310 310 310 311 311 311 311 311 310 310 310 310 310 310 310 311 312 312 312 312 311 313 307 303 295 298 306 310 323 308 305 303 306 303 298 298 300 297 298 298 298 298 300 301 300 300 299 296 293 296 297 294 287 284 284 285 286 281 280 284 282 286 291 289 290 292 290 292 285 285 286 294 322 327 326 324 321 323 324 324 324 324 324 323 323 324
310 310 310 310 310 310 310 311 311 310 310 310 310 310 310 310 310 311 312 312 311 311 309 305 305 302 294 291 300 314 309 306 305 309 305 304 298 296 298 297 297 299 299 299 301 301 300 299 296 292 294 293 289 282 281 283 281 282 284 278 284 284 282 287 290 288 290 292 292 291 282 287 291 300 321 326 325 323 321 322 323 323 323 323 322 323 323 322
310 310 310 310 310 310 310 310 310 310 310 310 310 310 310 310 310 311 311 311 311 311 308 302 304 303 289 297 305 301 301 303 306 305 301 302 300 298 299 297 297 297 297 299 300 299 298 298 295 293 290 288 284 284 285 276 277 279 282 283 282 286 285 284 288 292 289 291 289 290 285 286 289 303 320 325 325 323 321 321 322 322 322 322 322 322 322 322
309 309 310 310 309 310 310 310 310 310 310 310 309 308 307 309 310 309 309 310 310 309 307 308 302 293 291 297 293 296 304 301 301 304 302 300 300 298 297 297 297 295 296 295 296 297 296 293 290 287 287 285 288 281 279 278 280 280 281 280 282 284 284 286 286 289 292 290 288 288 287 286 286 295 319 324 325 323 321 322 322 322 322 321 321 321 321 322
309 309 309 309 309 309 310 309 309 309 309 309 308 310 311 309 309 308 305 304 296 291 289 290 290 285 285 294 295 299 302 305 301 305 301 300 300 300 301 298 295 296 292 290 291 294 292 291 289 286 285 283 285 285 283 282 283 283 284 284 283 284 284 286 288 290 292 288 286 286 286 286 288 304 318 322 324 322 321 323 322 322 321 321 321 321 321 321
309 309 309 309 309 309 309 309 309 309 309 306 304 305 306 299 295 298 303 303 297 298 300 298 296 292 297 299 299 302 304 302 300 299 300 305 301 298 298 296 293 291 290 288 290 292 292 284 283 281 282 285 286 286 287 285 286 286 285 286 285 284 286 287 288 292 290 289 286 285 285 285 291 305 317 321 321 320 320 320 319 320 320 320 320 321 321 321
309 309 309 309 309 309 309 309 309 308 308 306 303 300 293 294 289 288 295 299 302 302 300 300 299 298 298 300 301 302 300 299 298 297 299 304 298 298 294 294 288 290 287 288 291 294 288 284 283 285 287 287 288 287 288 288 288 288 286 286 284 284 283 288 288 289 292 289 285 285 285 288 294 303 317 318 317 317 318 318 318 319 320 320 320 320 320 320
309 309 309 309 309 309 309 309 308 308 308 305 302 298 301 299 301 302 299 293 297 303 303 303 302 300 303 303 304 304 302 298 299 299 300 302 297 295 291 289 287 287 286 290 288 284 283 284 286 288 289 289 289 289 289 289 287 287 286 284 285 283 285 287 288 290 292 291 285 286 286 287 293 302 313 315 317 318 319 318 318 318 318 319 320 320 319 317
308 309 309 309 309 309 309 309 308 307 305 301 298 298 298 301 305 305 304 296 296 300 301 301 299 300 301 305 304 305 298 295 295 297 296 299 294 294 290 288 288 286 289 289 286 282 283 282 287 289 289 289 289 289 289 288 287 285 283 283 283 283 285 282 286 289 292 290 287 285 288 288 289 293 304 310 313 305 308 310 312 317 318 319 319 320 317 317
308 308 308 309 309 309 309 309 306 303 299 299 299 299 304 305 305 304 300 293 294 299 301 302 302 300 300 301 304 303 298 297 297 297 301 298 294 292 291 287 286 288 286 286 286 284 284 288 292 289 289 289 289 288 288 286 285 285 286 281 282 285 284 285 287 288 289 292 288 286 284 284 285 297 299 305 303 302 306 310 308 311 316 317 317 318 317 315
308 308 308 309 309 309 308 307 298 299 299 298 298 303 305 305 305 303 299 295 293 294 304 303 304 302 303 308 306 301 300 299 298 299 299 299 292 292 290 290 288 285 284 285 286 286 286 289 290 290 288 289 288 286 287 287 282 283 285 288 286 284 288 287 286 287 279 284 289 284 276 281 283 284 293 298 300 302 302 307 308 310 311 313 313 314 313 314
308 308 308 308 308 307 308 296 295 300 299 297 298 304 304 305 304 304 296 286 285 293 299 294 306 298 308 301 304 300 300 296 301 301 299 299 301 295 293 290 290 287 285 286 287 284 287 290 290 289 288 288 287 286 286 289 282 283 286 288 288 286 287 287 288 285 280 281 288 287 280 277 278 287 289 289 293 299 300 304 307 308 310 310 311 311 313 313
307 308 308 308 308 307 293 289 300 299 291 294 296 303 305 307 308 304 298 281 278 294 294 298 299 297 304 301 303 299 287 290 298 300 299 304 298 298 290 287 290 290 288 288 286 285 290 290 289 289 288 286 286 285 287 288 284 282 286 287 287 287 288 288 285 284 282 284 289 285 281 282 283 285 286 288 291 293 297 300 303 307 309 310 310 311 312 313
307 308 307 307 307 306 299 299 298 295 294 298 303 304 304 306 306 302 286 274 275 294 293 294 297 305 301 301 302 297 295 299 293 297 301 300 299 295 294 287 289 288 290 287 281 285 290 289 288 288 286 285 285 286 288 289 286 285 289 287 287 288 287 286 285 282 283 283 282 281 285 281 279 281 286 289 290 291 295 299 301 304 306 309 309 310 311 313
307 307 307 307 306 306 301 300 299 295 299 302 303 303 306 305 301 293 279 275 288 291 302 296 306 301 297 300 298 298 297 298 292 295 298 299 299 294 289 290 288 287 289 289 284 285 289 290 290 290 287 287 286 286 290 291 288 289 289 288 288 288 288 285 281 285 280 280 277 282 284 281 277 277 283 286 287 286 291 295 300 303 305 307 308 309 311 312
307 307 307 306 304 301 301 302 299 302 303 303 303 303 304 300 291 280 277 272 292 287 294 297 296 294 294 293 294 297 295 295 296 296 297 294 297 297 295 293 290 289 289 289 288 287 290 296 296 291 289 288 288 288 290 291 291 290 287 286 285 283 282 282 281 281 280 274 276 280 282 281 279 278 285 285 287 286 286 288 289 297 303 305 307 309 311 311
307 307 306 306 298 297 299 292 297 303 304 304 303 301 297 290 279 272 271 279 293 292 296 293 292 293 291 290 289 293 295 295 295 294 292 296 293 293 293 292 291 285 282 283 287 288 289 289 292 290 296 291 289 287 288 287 288 289 285 282 284 282 280 280 277 278 274 272 276 279 281 283 280 279 283 285 288 288 289 290 291 291 300 303 305 308 311 311
306 306 306 304 302 302 292 289 292 300 299 301 304 295 291 282 283 275 274 294 285 289 289 289 292 290 290 291 291 289 290 292 293 292 289 289 288 288 288 284 286 280 279 280 283 287 288 288 286 290 300 292 288 286 285 285 284 286 284 283 279 276 272 276 274 276 274 274 284 281 282 283 280 279 286 288 290 291 291 291 293 292 292 298 304 307 310 310
306 306 307 305 306 302 302 300 299 299 301 303 297 289 281 274 271 278 283 288 282 292 290 293 291 291 291 289 287 289 291 289 291 291 290 290 289 289 291 289 287 285 281 280 282 282 283 284 287 289 290 294 290 286 285 284 283 284 284 279 277 272 268 269 269 270 276 279 281 282 284 280 280 285 288 289 292 293 293 295 293 292 293 295 303 306 309 309
305 306 301 302 303 304 304 301 303 300 301 300 293 288 279 271 273 293 285 287 287 292 293 292 291 289 289 287 286 289 287 289 290 291 291 288 288 286 288 289 288 289 285 281 281 280 276 280 285 286 287 291 290 289 289 284 283 285 283 285 282 275 273 268 273 270 275 276 279 282 282 279 281 283 290 292 293 297 299 301 300 300 298 300 304 306 306 306
305 303 299 298 300 302 303 303 300 301 299 295 289 280 275 275 276 280 284 287 289 291 290 292 289 288 285 287 288 291 291 288 291 289 289 287 284 284 286 288 289 287 284 282 282 278 281 278 284 288 291 290 290 290 287 284 284 283 283 284 282 280 278 279 275 276 276 277 277 282 279 281 282 288 291 291 294 298 300 301 303 302 303 303 304 305 305 307
301 296 297 295 299 301 302 304 300 299 298 294 286 278 277 280 278 285 285 293 290 289 287 287 286 285 282 283 288 290 295 290 290 288 287 288 287 286 288 291 289 289 285 282 280 281 281 282 287 287 290 288 290 291 290 288 282 284 284 282 282 284 284 275 275 278 273 274 274 273 280 281 283 288 290 289 295 296 298 299 301 301 302 303 303 305 307 309
295 297 294 297 300 304 302 303 303 300 298 293 284 280 281 283 285 288 294 292 291 288 282 281 281 285 282 283 284 287 291 291 291 288 284 288 287 288 289 289 290 290 290 289 282 281 280 277 283 286 288 290 289 290 289 289 288 284 281 283 287 288 287 281 275 271 268 269 271 276 277 277 277 278 286 290 291 293 297 297 298 300 301 303 303 304 305 306
295 295 299 300 303 304 303 303 301 298 294 290 283 288 286 286 292 292 294 292 290 289 284 281 281 286 282 283 284 287 291 287 287 286 283 287 285 292 289 289 292 290 291 291 288 285 284 280 281 285 287 288 289 288 289 289 288 284 283 288 286 280 280 279 277 269 271 270 270 276 277 277 278 280 283 287 287 290 295 295 298 299 300 301 303 305 306 308
295 295 290 299 304 304 303 303 301 298 292 287 280 283 289 287 291 294 295 294 291 288 284 283 282 284 285 282 284 288 290 286 288 285 285 287 283 290 291 290 290 290 289 291 288 283 283 279 280 284 286 288 286 284 281 283 287 286 288 286 285 282 279 278 275 278 276 268 267 274 275 275 282 279 287 287 287 288 290 295 296 297 299 301 300 302 305 306
291 286 287 301 305 304 303 302 298 293 286 282 281 283 288 290 293 293 293 293 289 288 284 285 286 282 283 284 286 285 288 289 286 286 285 288 287 293 290 291 289 290 289 290 287 287 283 281 277 284 286 287 285 284 282 281 281 284 282 280 282 281 283 282 282 280 275 269 265 269 270 275 280 284 288 289 289 290 290 294 294 296 299 300 301 302 303 304
292 287 290 301 304 304 303 297 290 288 283 283 286 287 290 290 292 294 294 294 292 292 290 286 285 283 283 284 285 286 288 288 289 286 285 289 287 283 291 290 291 290 289 290 289 285 281 281 281 280 283 280 284 288 287 284 282 282 281 282 280 279 281 278 275 280 277 275 269 269 267 275 283 290 291 290 291 291 291 293 295 297 297 297 299 301 302 305
289 284 291 301 302 305 296 289 287 287 282 284 285 291 290 302 293 291 293 292 292 290 291 290 287 288 286 286 286 285 286 286 287 288 289 284 289 288 292 292 290 290 286 284 285 288 285 281 280 280 283 284 286 288 288 288 288 285 285 284 281 280 277 276 271 277 278 279 277 277 274 277 286 289 289 290 291 292 292 296 296 296 296 296 298 300 301 302
288 289 299 301 302 305 291 283 285 288 287 287 292 293 294 294 291 291 291 291 290 290 289 288 287 286 286 287 286 285 287 285 287 285 287 290 290 291 291 291 291 291 287 286 287 288 301 279 279 280 280 283 287 288 289 287 285 285 285 282 282 283 284 279 275 277 277 278 276 274 273 276 284 290 289 291 293 292 294 295 296 295 296 297 298 299 300 301
289 290 293 301 303 300 290 283 282 278 284 290 290 291 292 294 293 290 290 289 288 287 287 287 289 288 287 288 286 285 288 281 287 287 287 290 290 294 293 293 293 292 291 289 287 291 284 283 282 277 275 278 279 281 281 284 283 281 282 281 282 282 280 279 279 278 278 279 276 277 272 275 286 290 290 290 292 293 294 296 297 296 296 297 298 298 299 300
288 291 292 296 301 298 288 286 285 279 282 285 286 285 287 289 291 291 291 288 290 288 287 286 289 289 288 288 287 287 288 285 284 287 287 287 289 291 292 295 295 292 297 297 301 292 285 283 280 274 273 270 269 270 272 276 281 280 282 280 282 281 281 281 281 275 275 278 278 273 270 277 282 288 288 289 289 290 292 293 296 294 294 296 297 298 299 300
286 280 286 289 294 293 293 294 291 287 280 283 279 286 287 285 289 291 290 289 290 289 287 287 287 288 286 286 285 286 286 289 285 285 284 285 287 290 290 293 298 299 306 306 299 291 282 284 282 279 279 278 278 278 281 282 281 280 282 280 281 280 280 280 277 271 274 276 275 277 280 281 282 284 285 286 287 288 289 291 291 292 292 293 294 296 297 298
287 283 280 282 288 290 287 290 288 288 283 287 280 286 283 285 287 289 292 287 291 289 288 286 285 284 283 284 283 283 284 285 286 283 283 284 286 288 290 290 291 297 305 301 299 288 285 282 283 283 282 282 282 282 284 283 280 280 280 282 281 280 279 279 278 279 279 281 274 280 280 279 280 282 283 284 286 288 290 290 291 292 292 292 293 294 297 295
282 282 286 288 284 282 285 286 290 288 289 288 284 287 284 284 285 282 288 290 291 290 285 286 285 284 284 284 283 279 281 282 283 280 284 285 283 286 287 288 288 292 298 292 294 289 284 280 285 284 282 283 283 284 286 285 284 283 282 280 281 281 281 279 280 280 280 274 276 279 280 279 280 281 283 284 285 288 289 291 292 292 293 294 293 293 293 293
285 283 285 288 283 286 289 288 290 289 287 289 284 286 284 284 283 286 286 286 287 287 286 279 282 283 284 284 281 279 280 278 279 282 282 282 282 282 281 283 287 286 288 289 289 288 285 281 284 285 283 284 284 285 286 285 284 284 283 281 280 281 280 281 280 280 280 279 279 280 280 279 281 282 283 285 286 289 289 291 293 292 292 293 293 292 293 293
282 282 282 285 284 284 287 291 289 288 285 289 284 285 285 284 284 286 287 285 280 284 288 283 283 284 284 284 283 280 282 283 283 279 283 282 279 282 281 283 283 285 286 286 289 289 288 281 288 284 281 282 284 285 286 285 285 283 283 282 281 282 282 282 282 282 283 281 280 281 279 279 282 284 285 286 286 287 288 287 288 290 291 292 292 292 292 293
287 285 286 282 280 282 287 286 288 286 284 286 284 286 286 285 285 287 285 287 284 283 284 283 285 284 285 284 284 283 285 285 284 284 285 284 281 286 282 283 284 283 283 283 285 285 285 280 283 281 279 279 282 284 284 285 285 283 282 283 282 281 280 280 279 281 279 280 279 280 278 275 282 284 284 284 285 285 285 285 286 287 289 290 290 290 290 291
287 288 285 279 277 284 279 282 285 286 282 285 285 286 285 285 287 288 281 287 288 287 286 285 285 283 283 284 283 284 286 286 287 287 287 287 287 286 286 286 285 284 282 282 283 282 281 283 280 278 278 275 281 282 283 283 281 280 277 281 281 281 281 281 281 282 281 280 279 278 277 279 281 285 282 283 284 284 284 285 285 285 286 287 288 289 289 289
Wind_Speed
14 14 13 13 13 13 12 12 12 12 12 12 11 11 11 11 11 12 12 12 12 12 12 12 13 13 13 14 14 14 11 7 8 3 2 12 9 9 10 3 4 12 10 0 3 1 2 2 2 1 2 2 1 0 0 0 1 1 2 4 2 3 4 4 4 6 1 1 5 7 2 4 4 3 1 5 8 5 7 7 4 10 8 7 11 15 14 13
14 14 14 13 13 14 13 12 12 12 12 12 12 11 11 11 11 11 12 11 11 12 12 12 12 13 13 13 14 12 10 3 9 8 16 8 10 11 9 5 4 8 11 2 3 3 6 1 1 2 3 1 2 0 0 1 0 2 1 2 6 4 3 6 3 5 0 3 4 5 4 1 2 4 2 3 0 2 6 5 6 10 11 12 13 13 14 13
15 14 14 14 13 13 13 12 12 12 12 12 12 12 12 11 11 11 11 11 11 11 11 12 12 13 12 12 13 9 9 5 3 6 8 9 15 12 10 10 7 13 6 3 4 5 3 5 4 3 2 2 3 1 1 0 1 2 4 4 2 6 2 3 5 4 5 2 7 8 4 5 6 0 0 3 4 3 6 6 5 10 14 14 12 14 14 12
14 14 14 14 13 13 13 12 12 12 12 12 12 12 11 12 12 11 11 11 11 11 11 11 12 12 12 12 11 5 4 3 1 2 4 5 10 14 11 13 10 7 3 2 5 4 3 5 4 5 2 3 2 0 1 1 1 1 1 3 1 4 2 5 5 8 6 1 3 3 4 6 5 0 2 7 7 1 3 6 9 13 16 14 13 14 14 12
14 14 15 14 14 14 13 13 12 12 12 12 12 12 11 11 12 12 10 11 11 11 11 11 11 11 12 11 11 4 4 2 0 2 4 0 6 14 13 13 12 4 2 4 6 4 4 3 2 2 3 2 1 1 1 1 1 2 5 3 2 3 0 5 6 6 3 3 0 3 4 4 3 1 3 7 3 3 7 10 7 14 17 17 16 13 12 11
15 15 15 15 14 14 13 13 12 12 12 12 12 12 12 12 11 11 12 10 10 10 10 10 10 11 11 10 3 3 0 1 2 4 0 2 7 13 12 12 13 6 4 2 3 2 4 2 3 2 1 2 1 3 2 1 0 3 3 2 4 3 1 2 1 3 2 2 2 1 2 3 1 2 0 1 1 3 3 3 11 17 17 13 14 14 13 14
15 15 15 14 14 14 13 13 13 13 12 12 12 12 12 12 11 11 11 11 11 10 10 10 9 11 8 5 1 3 2 6 3 8 4 2 6 14 14 12 12 7 4 4 3 2 1 3 3 2 3 2 0 1 3 0 0 2 3 1 4 3 5 5 3 3 3 3 6 2 3 3 2 1 0 1 4 5 3 7 13 15 16 13 15 14 17 15
17 16 16 15 14 14 13 13 13 12 12 12 12 12 12 12 12 11 11 10 10 10 9 9 9 7 7 4 1 2 1 6 10 4 4 8 11 14 12 7 8 6 4 5 5 4 4 5 4 2 3 6 2 5 0 2 1 2 2 1 4 2 4 5 4 5 4 7 6 3 4 9 5 3 3 1 3 3 5 9 13 15 15 11 13 14 14 13
16 16 16 15 15 14 13 13 13 12 12 12 12 12 12 11 11 11 11 10 10 9 8 8 8 4 6 3 2 2 5 7 5 1 6 9 10 11 13 5 4 7 4 3 2 5 5 3 2 3 2 0 1 1 2 1 4 4 7 1 3 3 5 5 5 6 6 4 3 1 7 9 2 4 1 3 2 3 7 10 12 15 14 13 13 14 15 12
17 17 16 16 15 14 13 13 13 12 12 12 12 12 12 11 11 11 11 10 9 8 8 7 6 4 3 1 0 1 4 4 3 3 6 10 10 10 5 6 7 7 5 3 3 4 3 4 5 4 5 2 2 1 1 4 3 4 4 4 4 7 3 3 3 4 1 4 4 5 4 4 1 1 4 0 8 8 10 11 11 15 11 10 11 11 11 11
17 17 17 16 16 15 14 13 13 12 12 12 12 11 12 11 10 10 10 9 8 7 7 6 5 5 1 1 1 4 5 4 2 3 8 10 11 9 7 8 7 6 6 2 4 5 4 5 3 3 1 1 2 1 2 3 2 3 3 1 5 4 3 5 2 10 1 4 8 8 5 2 1 1 5 4 8 10 13 13 14 9 8 9 10 10 8 8
18 17 17 16 15 14 13 12 12 12 12 12 12 12 11 11 10 10 10 9 9 7 5 5 3 2 2 1 4 8 1 2 2 3 6 8 6 6 7 10 8 9 8 5 5 5 5 4 4 2 1 0 0 1 2 3 1 2 1 3 6 6 4 1 4 3 6 4 7 6 0 1 0 4 3 6 10 10 10 13 12 11 8 9 10 8 7 8
18 17 17 17 16 15 14 13 12 11 11 11 11 11 11 10 10 9 9 8 6 6 4 2 3 2 1 3 10 10 5 0 4 5 2 3 4 3 4 3 7 8 9 7 5 4 3 1 2 3 1 1 1 1 1 1 2 1 2 1 4 6 4 3 1 1 4 2 6 6 3 6 6 7 4 11 11 10 11 11 12 9 9 9 9 7 7 5
18 18 17 17 17 16 15 13 12 11 11 11 11 11 10 10 10 9 7 6 6 6 5 5 2 1 0 6 7 4 4 2 4 4 3 0 5 1 3 2 1 2 1 4 1 4 4 1 2 0 1 2 2 2 2 4 4 1 1 4 0 2 2 3 2 0 3 2 7 1 4 7 4 6 4 10 14 16 13 12 13 10 10 10 8 7 6 5
18 18 17 17 17 17 16 15 12 11 11 11 11 10 10 9 8 8 7 6 5 3 3 1 3 1 1 8 7 11 8 4 2 4 6 4 4 2 3 3 3 2 1 2 0 0 3 5 1 1 2 2 1 1 2 2 4 2 1 3 3 2 4 10 3 4 5 1 3 2 4 8 6 7 9 11 10 11 12 13 12 9 10 10 8 6 6 5
19 18 18 17 17 17 16 15 13 11 10 10 10 10 9 9 8 7 7 6 3 2 3 1 2 2 0 8 1 4 3 1 3 4 5 7 5 2 5 4 1 1 2 1 2 1 1 3 1 4 1 1 4 4 4 4 3 5 2 3 0 0 3 5 0 4 6 0 0 6 4 1 3 6 6 8 12 11 10 11 10 8 9 9 5 6 6 5
19 18 18 17 17 16 16 16 14 12 10 10 11 10 9 7 6 3 2 2 2 2 1 1 1 2 1 3 2 1 1 3 2 1 4 4 6 3 8 3 1 2 4 1 1 3 0 1 1 2 4 2 2 4 1 4 3 2 2 1 1 0 1 1 9 2 1 3 2 1 2 5 3 0 7 9 10 8 8 10 10 9 7 6 4 4 5 5
19 18 18 17 17 16 16 16 15 12 11 10 10 8 6 6 3 4 3 1 2 2 2 2 1 2 9 2 3 1 0 4 1 1 3 0 4 5 4 2 0 4 4 2 1 2 1 1 3 3 1 2 0 3 3 2 5 1 1 2 2 1 2 4 0 2 2 2 4 1 3 5 5 1 7 11 11 10 9 10 11 13 11 8 5 6 6 6
19 19 18 18 17 16 16 15 15 13 10 11 8 5 0 3 1 1 1 1 1 1 1 1 1 2 2 1 4 6 3 4 2 5 3 5 1 2 1 2 5 3 0 2 0 3 1 1 3 1 1 1 3 7 8 4 4 3 2 2 2 1 3 2 6 4 2 2 5 5 6 6 5 2 7 8 9 9 10 8 5 3 6 6 7 7 6 7
19 19 18 18 17 16 15 15 13 11 10 6 4 1 2 1 1 1 1 1 5 7 7 5 7 3 8 8 5 5 3 4 2 3 2 1 8 3 1 1 2 5 3 1 0 1 2 3 4 4 6 6 4 6 6 5 4 3 2 2 3 2 6 4 5 7 2 1 4 6 5 5 6 8 11 11 8 6 7 8 7 6 7 7 7 9 8 8
18 19 19 18 17 16 15 14 12 11 6 4 4 1 1 1 2 3 3 9 8 7 7 6 14 11 8 1 1 4 5 3 1 1 2 2 6 7 2 2 2 0 1 2 3 1 4 2 5 7 9 8 5 4 2 4 1 1 0 0 5 2 4 5 3 4 1 4 0 2 5 7 5 3 8 8 8 10 11 9 8 8 8 7 8 9 10 7
21 20 20 19 18 17 16 14 12 10 1 2 2 1 2 2 1 2 1 7 4 13 11 16 4 7 5 8 2 3 3 2 6 2 1 5 2 5 1 3 3 4 1 1 1 2 1 3 7 8 3 3 3 4 1 3 2 2 1 1 1 6 5 9 4 2 2 1 1 1 5 2 1 2 4 11 14 8 9 9 7 7 8 7 8 9 7 5
21 21 19 20 19 18 17 14 11 5 1 2 1 1 3 2 3 4 1 3 11 4 10 8 4 11 9 3 3 6 2 4 4 2 4 4 2 5 4 3 2 2 1 2 5 0 2 6 10 4 5 4 0 2 4 3 2 3 3 1 4 3 2 4 4 1 5 3 0 3 7 1 3 1 2 2 2 1 2 3 4 6 8 10 10 8 7 8
21 21 21 20 20 20 17 17 3 2 3 5 2 6 4 3 4 3 3 2 6 3 6 6 8 3 7 2 4 8 7 3 3 3 2 6 6 2 4 4 3 1 3 4 6 6 8 3 1 7 5 7 4 3 4 3 2 1 5 3 2 2 3 5 4 5 3 1 5 6 6 2 5 2 3 5 1 1 2 5 3 4 4 3 3 4 6 8
21 21 20 21 20 20 19 12 2 3 3 1 5 7 7 8 4 3 2 4 2 5 2 0 4 4 4 2 4 6 3 0 6 3 4 8 3 3 3 2 3 3 4 3 4 0 8 7 2 1 4 2 3 2 6 7 2 1 6 9 8 3 2 3 3 3 3 1 4 1 3 1 4 5 6 2 1 5 1 5 5 5 6 5 7 7 4 5
21 21 21 20 21 21 18 1 1 1 2 5 4 2 2 4 2 4 2 3 5 4 3 2 2 2 4 1 4 3 4 3 7 6 6 6 7 4 1 0 2 4 3 5 5 3 6 1 5 4 4 4 4 4 4 7 4 2 4 8 6 4 2 1 1 2 1 3 1 1 4 1 5 2 2 1 3 5 1 2 4 6 7 7 7 6 7 7
21 21 21 20 18 18 5 0 0 2 3 3 1 1 3 4 1 2 2 4 3 2 2 1 1 1 1 3 6 4 1 5 1 3 4 3 7 0 4 4 1 1 3 2 3 3 1 0 3 3 5 3 3 3 5 9 7 2 2 4 4 4 2 3 5 2 1 1 3 5 3 6 1 2 2 2 1 3 5 5 5 7 7 8 6 6 6 7
22 21 20 19 16 10 2 4 6 1 6 2 5 6 4 4 1 2 3 3 1 1 0 1 2 1 0 4 7 6 2 1 3 3 3 4 5 1 2 4 7 8 3 2 5 4 4 2 1 1 2 2 4 5 4 8 7 3 4 7 6 4 3 5 3 3 0 1 2 6 5 5 1 3 3 2 1 4 9 9 7 8 7 7 7 7 7 7
22 21 21 18 17 14 3 3 1 5 4 3 6 7 6 2 3 4 2 1 2 0 4 2 4 2 1 2 4 4 1 0 1 1 1 2 2 4 4 6 3 4 0 5 7 2 2 4 2 3 2 3 6 4 8 10 5 3 6 5 6 7 6 3 4 2 2 3 2 1 3 2 2 3 4 3 0 4 7 9 8 9 10 8 8 6 6 6
24 22 20 17 11 0 1 3 7 9 4 8 8 8 2 2 2 2 2 3 1 1 1 1 1 2 3 4 3 2 3 2 1 1 1 3 2 2 1 4 4 2 2 3 2 8 3 5 5 3 4 5 2 0 6 4 2 6 5 7 6 8 4 3 6 2 3 1 3 2 4 2 0 3 6 3 2 2 4 5 4 3 6 7 8 9 8 8
23 24 19 15 3 3 2 4 10 9 7 4 8 3 2 8 3 3 1 5 1 3 1 1 1 3 4 4 3 3 3 0 0 3 1 0 2 1 2 2 5 4 3 4 3 4 3 2 0 2 1 2 3 3 3 1 1 4 1 3 5 3 6 4 4 5 2 2 4 3 2 0 4 2 1 4 6 5 4 8 9 5 9 10 9 8 8 7
25 24 22 10 6 1 3 5 2 3 1 5 4 5 3 2 3 3 5 3 1 1 3 3 1 1 1 1 2 1 3 0 2 3 6 5 5 5 3 5 4 1 3 1 5 3 2 4 2 7 3 7 2 5 3 2 3 5 6 7 5 1 3 1 4 1 2 3 1 3 2 1 2 3 1 2 5 6 5 7 10 6 4 4 5 9 9 8
25 24 24 12 9 8 10 13 2 3 6 5 4 4 3 3 3 4 4 2 1 1 1 2 1 3 1 1 3 4 2 5 3 3 4 1 5 6 1 4 4 6 2 3 1 3 6 3 4 5 3 2 5 6 1 1 1 5 5 5 5 2 2 2 2 0 3 4 3 1 3 1 3 5 1 3 4 5 7 6 6 8 7 7 8 7 8 8
26 22 11 4 7 11 7 2 5 3 1 1 3 5 7 2 5 5 4 3 4 2 2 1 5 3 2 4 2 4 3 3 6 3 2 2 3 3 2 0 4 1 2 1 2 3 0 2 5 2 3 1 3 7 11 8 7 7 3 9 7 8 5 2 3 3 6 5 2 3 1 3 2 1 5 3 4 4 3 3 4 3 1 3 5 6 6 5
25 15 7 3 3 8 12 5 2 3 2 3 6 4 6 7 2 3 3 2 2 1 1 3 2 1 3 1 2 1 2 1 2 4 2 5 3 3 5 5 3 6 2 4 2 2 5 5 6 4 0 1 3 1 4 5 4 0 2 6 6 5 7 2 4 3 3 3 2 1 2 1 1 2 5 3 4 7 6 7 6 7 5 4 6 7 7 7
14 5 0 2 2 4 8 8 4 3 4 6 5 2 8 6 2 3 1 2 1 1 4 4 2 0 1 2 2 1 1 1 0 3 1 3 2 4 2 1 5 8 6 6 4 2 1 1 1 7 0 3 2 2 1 5 3 2 3 4 4 2 10 6 2 1 3 5 3 0 4 3 6 2 2 6 6 6 7 7 6 6 6 6 6 5 6 8
6 6 3 3 2 2 5 8 7 4 4 6 5 6 6 3 6 2 2 1 0 1 3 3 2 0 1 1 1 1 1 2 0 2 2 1 1 2 1 1 3 4 7 9 1 3 4 4 3 2 1 3 2 1 2 2 5 7 2 5 2 3 6 7 3 3 3 4 3 2 0 4 3 2 5 5 5 4 6 7 4 5 5 8 5 5 5 5
6 4 3 3 7 1 6 9 9 4 5 7 7 5 1 3 2 3 0 1 2 3 1 1 4 2 2 1 1 1 1 2 3 1 2 3 1 1 1 1 1 4 5 0 5 2 4 2 2 2 2 6 5 3 6 2 3 4 3 5 3 1 2 2 6 1 1 0 1 0 0 3 3 2 3 3 3 4 3 4 4 4 5 5 5 7 7 9
2 1 2 7 6 4 5 9 6 7 4 5 5 4 3 4 2 1 2 2 2 1 0 3 2 1 1 0 3 1 1 2 1 0 3 1 1 1 0 3 1 2 1 8 4 1 2 4 4 1 2 2 3 3 4 2 3 3 3 3 1 3 1 4 4 4 7 3 3 2 2 2 4 2 0 3 3 4 2 3 1 1 3 4 2 4 5 10
3 1 2 5 2 2 6 4 4 4 4 8 5 3 2 2 3 4 3 1 1 2 3 1 0 2 1 3 1 1 1 4 3 2 2 1 1 1 1 2 1 0 3 5 3 1 2 1 3 1 3 1 1 2 3 4 5 2 3 2 1 3 2 4 2 2 3 7 4 4 1 3 3 3 1 4 4 4 3 3 1 1 1 1 0 3 4 5
1 2 1 4 6 5 1 2 3 5 4 0 1 1 0 1 0 1 4 3 1 2 3 2 1 2 2 4 5 1 0 1 2 2 2 0 2 0 2 2 1 1 1 5 4 1 3 1 6 3 4 2 1 1 2 3 3 5 5 2 5 6 4 4 3 1 2 4 4 5 3 5 5 2 5 4 4 4 3 3 2 0 2 2 2 2 2 5
2 3 4 7 5 2 1 3 1 0 3 3 2 2 1 2 0 2 2 1 5 3 0 1 3 4 2 4 6 1 2 1 1 2 1 3 0 2 1 2 2 1 4 2 3 2 3 4 6 3 1 1 0 3 3 3 4 6 6 1 4 2 5 5 4 3 3 1 4 3 6 2 2 5 5 4 3 3 2 4 4 1 2 3 4 4 6 5
5 0 4 6 6 1 4 1 2 1 0 2 4 2 1 1 2 3 0 1 1 1 0 1 4 3 3 3 1 1 2 1 1 2 1 1 1 2 3 4 2 5 5 1 2 0 4 2 4 1 2 4 4 3 1 2 1 6 6 3 1 1 0 3 1 5 7 2 1 1 1 2 2 5 5 6 4 4 6 4 4 3 2 3 4 4 4 4
0 1 6 8 7 4 8 1 2 4 4 5 2 2 2 2 0 1 1 2 1 3 0 1 3 1 1 2 1 1 1 2 2 1 0 0 1 4 4 4 1 1 2 3 2 3 1 1 7 3 2 4 3 3 3 4 5 3 2 2 1 3 4 2 4 1 6 5 5 7 5 2 1 6 7 11 10 10 9 7 6 5 4 3 4 3 3 2
0 1 1 6 11 10 5 1 0 1 1 2 2 5 7 3 2 2 1 2 1 0 0 1 1 3 1 1 1 1 3 1 1 3 1 1 2 3 7 8 6 3 1 1 4 3 6 1 2 5 7 5 4 2 2 1 1 0 0 3 3 4 2 0 1 1 3 2 3 3 2 3 2 8 12 12 11 10 9 6 6 4 4 5 5 5 6 6
3 1 6 6 6 6 5 1 1 1 1 3 4 2 2 3 4 6 4 3 2 1 2 2 2 1 3 2 3 4 6 5 3 0 4 3 3 3 3 7 7 4 5 11 6 5 4 2 3 4 6 7 5 4 2 2 2 3 0 3 1 2 2 3 5 4 4 3 1 2 5 4 5 11 11 12 9 9 9 9 9 8 8 7 6 6 5 5
2 5 2 5 6 7 1 5 9 6 4 2 3 3 5 3 3 1 6 2 5 1 2 6 4 3 3 3 1 3 3 2 6 5 4 2 3 2 8 4 6 11 5 3 4 5 4 4 1 8 7 0 2 1 1 2 4 3 2 3 3 5 2 4 1 2 1 9 1 1 1 5 3 5 7 9 9 7 7 8 8 9 9 7 5 7 11 12
5 1 1 1 2 4 6 8 11 10 14 9 4 3 4 7 9 4 5 3 0 4 1 3 10 6 1 1 1 3 7 3 4 2 5 2 2 7 4 7 5 8 4 2 2 4 4 3 2 4 4 5 5 5 3 6 6 3 3 3 5 7 9 4 0 0 1 2 7 2 5 6 1 3 4 4 4 5 6 8 6 4 7 10 13 14 13 12
4 0 1 2 2 3 4 2 8 9 12 10 0 8 9 10 9 4 2 4 5 7 5 3 6 10 8 3 3 3 4 2 3 2 2 4 3 4 4 5 2 8 6 2 4 1 6 1 1 4 7 8 9 7 5 9 3 5 8 7 3 10 5 5 4 4 1 4 6 11 12 7 1 2 3 3 3 4 5 5 10 14 11 10 13 13 12 11
4 3 3 5 4 3 3 1 3 5 10 10 4 10 7 9 7 8 8 8 3 5 5 5 4 5 8 9 6 5 1 2 1 3 1 1 3 4 1 1 4 6 5 2 0 1 5 2 5 4 4 1 1 2 4 7 4 3 3 4 4 6 10 6 4 3 9 7 4 11 12 7 2 1 3 3 3 3 11 15 11 9 10 11 12 11 10 9
1 1 0 1 5 5 3 3 2 5 4 7 6 7 7 13 7 6 7 6 7 3 5 4 4 4 5 8 9 5 0 1 3 4 2 0 1 1 2 2 2 4 6 4 3 3 5 3 2 3 6 1 1 0 2 3 2 1 0 1 2 4 6 2 3 1 2 7 5 7 8 4 2 2 3 4 6 13 12 9 10 9 9 11 12 11 10 9
1 0 2 1 4 5 4 4 3 1 5 1 2 4 4 10 8 6 2 5 7 7 5 4 2 2 4 10 9 6 7 3 5 7 5 5 4 3 2 3 2 2 3 2 0 2 1 7 5 4 7 3 1 2 6 8 7 3 2 2 1 3 4 4 2 4 2 2 6 8 5 2 2 1 6 6 10 9 10 7 7 8 8 8 9 8 7 8
Wind_Direction
323 322 319 318 318 320 318 317 316 314 316 315 316 315 315 316 321 318 317 319 318 320 321 323 325 327 328 329 328 337 355 331 314 321 317 241 187 201 174 115 137 201 201 49 6 103 63 48 98 353 66 90 298 92 255 76 158 60 118 112 244 198 133 202 180 187 171 278 296 338 27 41 360 25 101 49 40 66 71 54 38 53 60 102 110 116 122 124
324 321 319 318 322 318 318 316 315 314 314 313 313 315 315 316 315 312 316 319 319 319 323 326 332 328 330 329 330 348 345 317 304 278 235 214 176 191 188 160 99 145 132 112 146 127 118 78 85 79 103 106 317 151 8 224 105 108 113 109 223 172 238 160 206 213 10 267 275 288 337 121 263 136 210 81 285 21 50 49 78 81 94 103 116 122 129 133
324 323 319 318 321 318 317 314 313 313 313 314 313 316 316 316 313 317 315 317 317 320 322 328 331 329 331 331 330 7 352 317 281 281 265 231 204 185 179 161 137 150 136 151 198 144 143 167 171 94 23 100 357 165 56 293 150 221 121 237 249 209 239 237 243 260 183 26 311 318 312 353 280 168 162 144 140 75 138 137 96 122 133 133 132 134 136 134
326 323 319 318 322 318 316 314 312 313 313 313 313 313 313 312 314 316 321 316 319 322 325 329 328 332 330 326 343 13 27 303 336 249 269 253 191 191 165 160 159 152 86 73 165 123 128 90 89 100 71 76 309 15 101 261 110 270 107 192 224 200 149 266 238 254 286 130 275 288 308 335 323 164 104 148 103 219 251 220 166 163 151 143 141 141 140 137
330 325 321 320 321 319 316 313 312 313 314 312 313 313 311 311 312 315 317 316 320 323 326 326 330 327 330 332 346 28 4 47 252 230 254 99 167 179 162 161 165 128 140 128 90 66 77 111 88 49 91 160 352 29 257 278 177 109 210 189 179 126 137 252 226 247 254 129 184 311 337 290 310 49 110 149 135 226 203 205 207 152 150 148 148 148 141 145
334 329 323 323 321 320 318 315 312 313 314 314 312 313 310 312 313 316 316 318 320 323 322 325 327 328 339 343 30 61 65 68 295 279 114 155 158 162 145 155 157 130 121 107 107 97 95 25 71 70 28 88 153 135 266 212 88 246 314 247 223 199 226 254 199 215 183 286 230 321 248 338 69 325 174 304 178 267 270 208 161 158 156 144 137 143 148 154
339 335 330 326 321 320 319 316 313 313 313 315 311 310 311 312 314 315 317 320 323 325 327 333 330 327 3 9 80 49 83 269 313 259 356 134 151 140 137 140 133 130 123 99 97 107 98 105 85 165 98 82 285 170 255 131 23 142 247 351 307 157 210 252 274 202 256 268 261 209 353 307 281 299 212 356 300 294 298 133 142 146 148 143 145 156 160 162
343 340 335 330 325 321 319 316 314 314 316 313 311 309 310 313 313 315 319 321 319 318 324 325 321 347 26 23 5 352 41 253 249 296 59 93 113 132 117 99 122 120 117 143 135 123 114 123 144 155 73 147 215 152 348 88 4 197 280 244 265 151 233 262 263 287 248 247 265 320 291 260 226 207 104 288 300 2 95 120 137 147 146 146 148 155 159 165
345 343 339 334 329 324 320 319 317 315 312 310 308 309 311 314 311 314 316 318 319 318 316 324 325 30 83 86 92 353 267 237 223 224 97 101 123 125 129 124 142 123 134 125 148 160 129 230 126 177 224 103 191 107 275 130 313 203 226 205 288 287 273 260 289 263 249 268 177 156 247 261 184 134 88 232 100 112 119 126 139 146 148 152 159 161 163 167
345 346 344 340 335 329 324 320 318 313 309 307 309 310 309 309 310 311 315 318 320 318 316 325 341 45 46 32 71 30 262 218 29 90 103 115 114 129 73 113 136 121 117 183 92 117 169 206 171 187 124 88 139 190 110 122 233 174 210 217 235 257 315 300 213 272 187 216 167 189 245 279 325 77 263 198 131 131 130 133 144 152 152 154 156 161 165 168
345 346 346 345 341 335 328 323 319 313 310 309 312 311 310 306 308 310 311 315 318 314 313 309 336 47 35 352 103 223 256 60 20 90 117 123 123 137 163 148 147 134 117 119 176 184 199 163 173 117 59 215 129 285 141 216 144 175 191 283 270 304 255 242 293 263 129 281 190 181 229 95 12 76 219 184 141 146 137 146 155 153 147 152 155 161 163 178
345 345 346 346 345 339 333 326 320 318 314 313 309 308 306 306 305 309 309 313 312 318 312 302 47 99 77 98 195 224 306 95 97 113 129 133 144 175 154 160 158 153 143 157 218 218 174 180 124 80 174 165 59 297 251 236 155 247 129 301 293 1 354 283 197 259 165 245 169 183 101 339 8 201 260 145 143 150 144 151 160 156 153 156 166 163 173 181
346 344 345 346 347 345 338 331 325 318 315 310 307 304 305 306 307 309 310 310 313 328 348 332 69 72 33 335 229 236 283 13 113 107 110 67 102 65 118 171 161 157 163 157 204 223 221 80 90 61 219 114 182 155 170 82 284 49 51 154 336 1 341 292 271 99 140 265 134 135 231 267 255 252 283 151 148 147 147 158 163 158 159 166 173 177 178 168
345 344 344 345 346 344 343 337 328 322 316 313 311 307 308 310 312 307 305 298 305 301 281 278 91 358 51 240 272 238 232 197 130 119 184 209 90 24 83 85 141 145 97 148 151 181 176 121 84 168 122 159 244 282 16 335 28 209 263 63 181 28 284 285 71 331 150 200 162 114 225 279 272 272 211 161 161 159 162 168 171 163 167 170 179 183 184 178
345 344 343 343 344 345 344 340 333 325 321 317 315 312 307 305 302 298 294 308 301 259 256 182 53 77 24 266 259 279 245 125 154 224 168 135 124 54 174 118 176 175 115 90 181 56 143 132 110 360 265 273 37 10 319 12 358 28 76 294 327 131 275 299 278 189 173 310 142 122 242 229 260 257 180 170 170 168 162 171 171 163 169 175 178 179 181 177
344 344 342 342 343 343 343 342 336 329 322 317 314 308 300 287 284 289 296 291 314 253 53 224 207 193 34 298 277 3 50 265 267 197 188 148 148 177 170 141 121 131 91 288 249 245 57 121 171 193 238 353 72 86 39 24 342 354 84 255 273 55 261 340 280 206 226 131 28 170 202 329 282 238 186 166 171 178 168 171 171 165 168 174 167 172 179 164
344 343 342 341 341 341 342 341 340 330 325 319 315 307 296 280 271 286 309 304 164 96 123 71 129 198 343 235 283 350 264 249 218 57 165 194 145 134 110 95 172 158 145 230 96 122 313 148 296 49 27 121 144 100 56 17 326 320 16 147 210 176 357 296 305 314 184 145 248 211 135 224 254 205 162 171 182 178 178 177 180 176 173 159 151 158 179 188
343 343 342 341 340 340 340 341 338 335 325 324 321 303 285 278 297 355 43 46 150 137 311 252 187 328 275 355 295 248 129 286 307 174 100 180 131 124 106 153 88 131 104 121 34 163 288 184 44 191 24 360 49 55 110 222 189 213 11 15 329 316 241 246 32 270 34 17 213 254 201 252 274 275 177 175 179 183 190 185 188 185 177 157 149 182 194 197
342 342 341 341 339 338 338 340 340 336 332 332 327 335 209 128 58 116 115 165 108 30 4 234 123 140 209 251 266 304 291 216 125 130 194 121 168 118 50 84 100 132 61 105 252 141 13 82 34 55 235 6 205 156 170 209 149 157 161 191 175 291 295 247 244 271 201 258 231 206 203 217 253 145 185 176 179 184 184 192 188 140 139 146 174 188 192 204
341 340 340 339 338 336 337 338 340 337 340 334 360 342 160 28 9 360 324 224 226 214 253 217 203 274 306 293 289 258 269 34 134 247 100 156 112 132 334 89 19 58 96 174 232 182 147 135 181 198 212 217 226 186 188 194 141 114 103 128 205 214 279 279 272 259 94 114 234 219 196 198 225 187 179 177 161 167 178 183 177 172 165 170 188 196 198 204
338 339 338 337 336 335 332 335 338 334 335 334 319 316 18 120 40 298 258 231 222 240 245 240 193 207 217 140 306 23 20 317 75 306 208 117 100 113 257 65 28 44 310 182 139 287 69 96 256 216 210 197 211 166 110 84 83 140 151 226 297 174 251 243 240 331 297 165 259 204 164 209 231 203 172 158 157 186 190 183 185 188 181 182 189 198 198 195
338 337 337 336 335 332 331 329 334 325 330 355 356 209 307 215 258 239 76 304 269 224 229 241 230 262 265 261 253 113 76 331 323 304 293 145 165 137 284 102 133 187 312 122 23 24 21 209 241 221 183 141 125 136 158 177 141 58 189 206 279 270 244 282 280 312 314 175 264 143 144 232 332 225 192 179 188 199 196 194 195 182 180 184 196 207 191 172
338 337 335 335 333 330 328 324 323 349 287 240 209 217 241 238 330 346 22 277 281 204 216 227 218 240 262 239 213 121 159 201 237 284 182 132 96 195 145 104 157 152 47 89 164 174 298 285 253 203 147 122 66 105 114 77 67 124 90 86 218 237 32 303 285 316 359 54 185 102 94 10 334 325 286 275 189 358 123 132 157 186 201 201 207 201 186 197
337 337 335 334 332 330 323 324 15 123 205 210 216 215 245 319 314 349 124 231 287 304 211 211 195 190 219 175 198 150 157 238 132 272 253 130 154 182 104 152 114 134 206 183 161 158 204 204 85 119 145 155 173 177 124 120 227 269 171 162 252 267 241 165 273 342 313 38 87 75 52 6 360 128 254 246 273 32 90 126 143 175 180 206 227 218 200 196
335 337 336 333 333 330 322 320 84 236 176 197 239 248 255 263 281 193 147 324 325 285 260 87 172 230 221 74 121 150 222 229 207 207 183 140 138 97 225 183 115 221 199 166 101 217 278 251 167 128 166 182 149 144 203 145 199 288 229 194 199 187 230 272 345 19 25 355 21 97 44 6 300 289 227 282 148 241 253 165 188 177 181 180 208 205 191 194
334 334 336 334 332 332 313 28 304 10 316 263 224 217 227 287 331 170 96 77 303 270 337 283 144 288 138 163 157 144 98 237 210 204 165 189 147 141 56 123 142 221 178 137 170 192 210 315 146 194 163 181 183 199 227 164 165 79 265 201 188 178 171 72 6 78 11 118 338 52 132 256 324 289 250 316 251 236 293 206 205 193 191 195 209 193 191 185
332 332 334 336 333 339 11 289 22 285 343 296 82 343 319 304 180 159 28 349 345 254 169 255 84 236 198 190 158 129 78 259 17 91 113 178 171 137 126 225 24 39 155 155 49 260 132 262 77 63 98 114 146 252 241 146 113 226 246 132 115 123 147 137 104 114 188 251 295 47 102 126 119 282 308 311 293 258 270 247 229 219 202 200 202 196 190 187
329 330 331 331 331 334 207 308 342 254 228 257 358 342 336 293 106 48 81 4 325 269 327 256 224 57 360 178 169 165 195 123 119 245 187 192 118 14 185 214 181 183 176 102 183 258 160 180 175 87 98 112 186 210 190 147 137 217 194 146 159 159 156 118 79 96 237 137 255 328 355 74 263 264 328 6 116 276 250 239 225 224 217 205 195 199 196 189
326 327 328 328 325 312 265 187 187 239 235 335 322 330 324 33 98 101 114 89 248 59 257 93 276 101 54 109 209 228 6 257 129 275 57 99 184 136 197 224 176 160 8 150 197 274 281 188 210 147 141 249 229 212 160 172 154 260 148 84 76 66 63 93 102 79 334 61 273 283 13 138 279 285 335 353 239 275 255 252 233 210 212 200 191 195 197 189
322 324 324 324 327 33 157 213 231 239 313 330 319 311 349 59 35 40 10 254 319 323 98 223 86 228 112 141 240 257 260 309 70 64 44 153 222 50 56 137 134 125 204 11 149 222 253 294 171 130 206 208 159 180 183 167 94 117 97 65 26 35 28 18 59 90 66 26 267 259 310 140 204 252 193 121 229 212 288 296 278 235 198 198 193 187 186 188
320 320 320 319 276 246 139 282 252 250 257 291 295 316 67 42 125 104 177 229 328 251 7 29 242 10 124 153 214 265 238 220 360 126 101 65 44 73 165 12 55 53 34 352 302 320 345 351 248 250 97 109 113 75 37 83 91 139 67 114 58 358 10 29 346 41 96 274 263 279 251 155 148 300 320 252 301 293 272 277 283 247 209 194 187 187 181 177
318 316 310 301 229 199 198 228 232 117 109 319 9 50 78 227 15 152 214 304 67 286 77 299 347 91 264 278 133 205 193 227 198 137 157 179 156 162 210 173 165 54 334 242 255 3 311 246 239 319 241 164 115 77 350 26 9 75 78 50 115 248 42 264 7 180 174 182 226 317 282 43 209 214 189 275 277 294 261 243 266 277 279 239 190 179 173 169
317 314 307 286 247 211 237 242 304 330 343 357 61 50 83 106 222 242 264 324 238 52 280 164 305 318 253 97 242 232 178 197 270 214 120 52 137 222 216 175 184 143 199 255 224 15 281 289 337 282 339 176 129 127 131 53 357 112 153 136 97 87 53 193 286 271 313 282 253 330 279 226 259 300 314 324 280 260 279 281 264 265 245 213 182 171 164 164
315 314 303 228 208 216 230 232 250 318 321 52 80 54 56 102 240 226 226 244 239 334 342 352 319 312 157 186 240 156 186 252 153 212 135 158 129 211 276 316 143 113 89 157 161 200 24 349 291 162 220 298 157 173 181 172 169 205 127 145 178 144 156 194 192 171 201 192 280 291 64 222 134 241 331 303 279 307 321 332 345 346 269 167 140 130 123 122
315 305 264 307 268 238 229 209 220 180 105 74 67 100 152 228 228 185 225 275 280 314 315 304 279 10 310 343 286 183 152 251 141 114 141 126 223 173 179 203 232 107 139 136 259 72 189 200 257 230 289 113 160 191 119 93 60 98 163 83 98 212 148 135 204 142 155 131 35 215 213 184 168 287 299 319 358 16 2 15 21 32 19 62 99 112 118 108
324 313 205 264 246 264 189 193 188 156 130 97 103 141 205 190 203 188 238 176 17 3 300 358 71 62 284 314 316 56 303 136 248 104 335 172 203 187 217 212 177 183 137 170 193 167 26 279 287 321 108 175 200 127 247 135 187 232 103 184 206 150 105 95 64 42 98 62 195 277 318 318 304 6 338 348 37 2 10 7 23 39 51 53 62 80 101 114
348 335 29 302 266 206 164 162 170 145 111 123 126 223 200 268 199 179 275 58 231 109 48 65 301 119 271 258 266 320 276 48 277 120 225 201 291 210 214 280 176 173 194 140 293 184 145 240 300 62 18 23 3 162 74 5 140 97 163 229 170 132 116 123 149 338 58 142 238 31 192 302 40 227 329 18 39 356 12 0 360 37 56 79 67 68 64 51
326 318 249 281 313 5 147 157 145 135 103 127 190 216 216 202 214 179 261 33 18 7 88 117 273 103 274 109 301 232 319 137 287 59 200 194 201 168 89 153 249 185 228 121 168 273 116 312 301 268 240 286 356 56 46 354 36 152 195 163 112 211 169 343 99 114 115 207 264 347 16 267 166 245 351 25 9 330 7 7 18 36 58 71 94 101 99 83
265 359 33 342 337 118 141 155 148 139 111 159 205 204 245 224 267 201 219 129 193 107 242 241 184 300 117 308 223 262 231 150 296 357 122 267 138 210 169 173 197 212 282 148 170 155 44 162 286 296 155 327 13 66 176 276 338 20 81 72 356 104 149 126 195 165 119 194 83 264 49 208 219 215 208 271 265 274 296 54 4 8 90 110 121 118 125 123
18 39 345 353 2 79 131 133 94 77 99 181 191 210 201 206 260 266 260 173 297 125 239 221 234 289 319 225 160 262 345 127 148 244 108 266 127 263 230 343 175 316 39 154 109 96 125 112 201 286 304 39 105 4 189 162 129 60 38 344 20 36 210 103 41 80 156 160 172 159 308 285 273 236 311 304 266 254 219 168 263 313 17 47 151 124 103 102
294 90 297 22 34 103 159 32 100 171 154 277 143 205 231 220 312 291 298 179 268 255 200 190 166 215 216 2 315 214 267 122 168 133 189 185 143 34 269 191 216 131 69 56 73 78 87 120 191 307 23 21 235 280 268 232 172 140 145 150 167 117 121 129 216 52 75 105 192 124 222 269 271 283 294 289 278 259 230 171 170 334 10 27 348 23 89 102
48 45 329 3 338 236 64 106 8 138 101 135 188 179 233 202 37 275 293 276 186 249 313 210 238 224 203 213 206 229 138 228 222 118 264 159 272 131 268 84 175 184 119 147 161 223 145 149 94 74 136 72 264 309 309 345 105 115 121 132 139 122 104 95 137 231 47 47 118 152 118 256 280 312 321 303 291 269 199 145 120 58 31 34 33 26 25 35
40 287 263 332 346 248 57 69 299 30 192 245 299 304 283 343 184 234 258 305 285 202 276 191 218 190 256 209 194 165 141 148 163 212 217 106 212 190 231 5 323 36 73 28 57 291 105 75 66 337 326 306 308 292 333 11 62 53 34 71 75 71 215 173 175 180 134 176 71 25 87 229 302 349 338 358 8 39 53 46 85 45 16 36 59 45 38 37
264 302 327 350 4 83 74 91 352 321 313 322 18 299 309 238 180 341 152 8 82 339 201 282 351 96 280 50 70 109 307 126 326 72 258 192 104 340 47 22 91 70 59 198 135 245 101 312 112 97 19 337 343 348 357 329 54 66 82 11 84 98 70 152 112 34 103 207 168 127 186 232 345 351 11 23 22 36 35 36 58 51 357 18 39 40 46 35
339 283 305 316 5 39 77 191 153 264 302 357 327 15 355 348 7 300 174 66 356 41 342 289 195 306 20 55 75 65 34 99 126 2 130 7 325 330 339 45 83 69 25 271 71 114 81 134 87 134 153 161 189 243 245 234 121 298 87 49 40 82 99 61 147 20 123 229 115 134 197 252 274 4 15 17 17 23 19 21 36 53 37 22 13 15 14 14
22 52 319 339 17 24 47 276 152 206 19 6 39 349 39 327 325 7 68 82 43 53 70 289 317 61 50 39 37 33 20 12 89 310 45 340 327 345 350 331 69 96 47 56 41 58 119 81 77 136 156 187 202 213 257 115 39 71 263 62 15 53 34 96 98 85 186 183 134 232 165 129 11 360 0 1 15 19 10 13 23 19 11 21 28 29 30 28
124 56 344 339 330 43 232 359 28 33 5 275 76 347 355 332 274 338 26 90 13 48 26 48 359 34 338 52 41 58 10 349 12 79 8 322 276 264 308 5 44 12 2 87 22 81 69 68 79 100 66 266 242 240 309 99 112 9 25 335 24 45 26 80 78 240 150 113 258 325 229 99 352 346 351 357 4 17 25 22 21 25 24 26 29 37 33 28
60 291 125 241 80 321 345 9 0 20 21 33 41 350 11 17 31 23 325 28 197 35 93 352 28 32 309 231 103 67 341 28 30 25 321 341 336 340 22 10 63 339 4 70 3 109 129 100 317 67 26 28 24 28 31 73 58 72 34 356 36 19 47 74 133 176 76 126 193 179 81 83 341 341 333 358 358 26 30 30 32 39 42 43 46 43 39 34
107 252 228 335 82 14 44 280 353 10 32 16 138 12 20 20 29 6 355 314 23 4 39 84 4 2 11 19 101 100 9 75 15 338 54 326 29 345 17 337 332 18 27 56 33 128 90 31 158 100 73 27 17 18 18 74 64 47 20 9 1 80 61 80 60 7 79 111 131 112 89 83 16 333 351 354 350 46 50 47 47 42 37 50 57 53 49 45
10 23 331 358 92 66 360 46 19 6 48 345 45 357 4 4 21 8 23 25 13 352 7 77 7 0 21 38 54 82 24 94 102 46 310 70 330 42 54 144 286 324 27 56 12 336 101 217 166 124 91 74 9 352 32 53 54 57 27 23 9 75 77 50 88 71 80 67 94 103 91 74 3 9 32 13 35 81 59 48 46 44 42 50 58 54 47 42
243 166 208 54 31 343 347 21 51 52 55 352 41 350 10 360 360 347 61 51 59 17 348 341 332 325 15 40 55 75 4 245 242 244 228 143 71 288 64 273 60 326 349 4 26 324 67 154 55 94 99 254 257 176 116 117 97 107 94 330 56 59 81 336 58 318 114 155 160 101 91 119 103 22 54 44 67 63 66 61 54 46 44 52 57 52 49 43
47 308 66 109 73 342 24 310 8 40 37 303 351 343 4 341 354 6 55 10 34 47 4 341 314 84 16 26 19 345 321 267 247 244 232 228 239 271 288 262 321 315 324 23 208 58 47 136 146 132 117 205 131 142 137 121 96 68 254 291 57 78 128 113 42 41 50 119 126 146 172 201 170 219 98 56 68 70 63 53 62 54 52 58 58 55 49 44